Location: Vernon
(50.2670°N, 119.2670°W)
Time: 13:52:43
(UTC-07:00)

OTV 5 (USA 277) - Visible Passes

Search period start: 18 October 2019 00:00
Search period end: 28 October 2019 00:00
Orbit: 310 x 324 km, 54.5° (Epoch: 08 October)

Date Brightness Start Highest point End Pass type
(mag) Time Alt. Az. Time Alt. Az. Time Alt. Az.
18 Oct ? 05:10:32 26° ESE 05:10:32 26° ESE 05:11:54 10° ESE visible
18 Oct ? 06:41:27 10° W 06:43:07 15° SW 06:44:48 10° S visible
19 Oct ? 05:25:04 23° SSE 05:25:04 23° SSE 05:26:19 10° SE visible
20 Oct ? 05:39:44 13° S 05:39:44 13° S 05:40:16 10° SSE visible
